User: anonymous   Login
Location: Peebles
(55.6412°N, 3.1714°W)
Time: 06:40:22
(UTC+00:00)
Language:

OBJECT B - Orbit

View from above orbital plane
View from above orbital plane
View from above satellite
View from above satellite

Ground track
Ground track

The orbit data is extracted from the following two-line orbital elements,

1 43832U 18102B   22334.79684138  .00011344  00000-0  56609-3 0  9994
2 43832  97.4951  49.6649 0011511 323.7491 150.9103 15.17615760219553
Epoch (UTC): 30 November 2022 19:07:27
Eccentricity: 0.0011511
inclination: 97.4951°
perigee height: 505 km
apogee height: 521 km
right ascension of ascending node: 49.6649°
argument of perigee: 323.7491°
revolutions per day: 15.17615760
mean anomaly at epoch: 150.9103°
orbit number at epoch: 21955

The dashed part of the orbit path shows where the satellite is in the earth's shadow,  

DLR